Location: A�t Lahcen
(32.8243°N, 5.4246°W)
Time: 00:33:25
(UTC+00:00)

USA 238 - Pass Details

Date: 27 January 2021
Orbit: 996 x 1216 km, 63.4° (Epoch: 25 February)

Event Time Altitude Azimuth Distance (km) Brightness Sun altitude
Exits shadow 05:51:25 19° 239° (WSW) 2,171 4.9 -18.7°
Maximum altitude 05:55:50 48° 305° (NW) 1,316 3.8 -17.7°
Drops below altitude 10° 06:02:20 10° 19° (NNE) 2,879 6.0 -16.4°
Sets 06:05:10 0° 25° (NNE) 3,869 6.8 -15.8°
